When you browse on this site, cookies collect data to enhance your experience and personalize the content and advertising you see.
Visit our Privacy Policy to learn more. By continuing to use the site, you agree to this use of cookies and data.
  • en France
  • Liste des pays
  • À 7 jours
  • Température de l'eau
  • Carte satellitaire
  • Carte météo
  • Widgets météo
  • user-avatar
    Se connecter

    Météo par heure à Plovdiv

    Ce jour, 22 Mars, Vendredi

    Heure Température Précipitation Vent Pression Humidité
    00:00 +9°C° 0 mm 1 m/s 748 mmHg 79%
    01:00 +9°C° 0 mm 1 m/s 749 mmHg 80%
    02:00 +8°C° 0 mm 1 m/s 749 mmHg 81%
    03:00 +8°C° 0 mm 1 m/s 748 mmHg 82%
    04:00 +8°C° 0 mm 1 m/s 748 mmHg 83%
    05:00 +7°C° 0 mm 1 m/s 748 mmHg 84%
    06:00 +8°C° 0 mm 1 m/s 748 mmHg 79%
    07:00 +9°C° 0 mm 1 m/s 748 mmHg 75%
    08:00 +9°C° 0 mm 0 m/s 749 mmHg 71%
    09:00 +12°C° 0 mm 1 m/s 748 mmHg 65%
    10:00 +13°C° 0 mm 1 m/s 748 mmHg 58%
    11:00 +15°C° 0 mm 1 m/s 748 mmHg 52%
    12:00 +15°C° 0 mm 1 m/s 747 mmHg 49%
    13:00 +16°C° 0 mm 2 m/s 747 mmHg 46%
    14:00 +17°C° 0 mm 2 m/s 746 mmHg 42%
    15:00 +17°C° 0 mm 2 m/s 746 mmHg 43%
    16:00 +16°C° 0 mm 2 m/s 745 mmHg 44%
    17:00 +16°C° 0 mm 2 m/s 745 mmHg 45%
    18:00 +14°C° 0 mm 1 m/s 745 mmHg 50%
    19:00 +13°C° 0 mm 1 m/s 745 mmHg 55%
    20:00 +11°C° 0 mm 1 m/s 745 mmHg 60%
    21:00 +11°C° 0 mm 1 m/s 745 mmHg 60%
    22:00 +11°C° 0 mm 1 m/s 745 mmHg 61%
    23:00 +10°C° 0 mm 1 m/s 745 mmHg 61%

    Demain, 23 Mars, Samedi

    Heure Température Précipitation Vent Pression Humidité
    00:00 +10°C° 0 mm 1 m/s 745 mmHg 64%
    01:00 +9°C° 0 mm 1 m/s 745 mmHg 66%
    02:00 +9°C° 0 mm 1 m/s 745 mmHg 69%
    03:00 +9°C° 0 mm 1 m/s 745 mmHg 71%
    04:00 +9°C° 0 mm 1 m/s 745 mmHg 73%
    05:00 +8°C° 0 mm 1 m/s 745 mmHg 76%
    06:00 +9°C° 0 mm 1 m/s 745 mmHg 72%
    07:00 +10°C° 0 mm 1 m/s 745 mmHg 68%
    08:00 +11°C° 0 mm 1 m/s 745 mmHg 64%
    09:00 +13°C° 0 mm 1 m/s 745 mmHg 58%
    10:00 +15°C° 0 mm 1 m/s 745 mmHg 51%
    11:00 +18°C° 0 mm 1 m/s 745 mmHg 45%
    12:00 +18°C° 0 mm 1 m/s 744 mmHg 42%
    13:00 +18°C° 0 mm 2 m/s 744 mmHg 40%
    14:00 +19°C° 0 mm 2 m/s 743 mmHg 38%
    15:00 +19°C° 0 mm 2 m/s 743 mmHg 37%
    16:00 +18°C° 0 mm 2 m/s 742 mmHg 37%
    17:00 +18°C° 0 mm 2 m/s 742 mmHg 37%
    18:00 +16°C° 0 mm 2 m/s 742 mmHg 43%
    19:00 +14°C° 0 mm 1 m/s 742 mmHg 49%
    20:00 +12°C° 0 mm 1 m/s 743 mmHg 55%
    21:00 +11°C° 0 mm 1 m/s 743 mmHg 61%
    22:00 +11°C° 0 mm 1 m/s 743 mmHg 67%
    23:00 +10°C° 0 mm 1 m/s 743 mmHg 74%

    Après-demain, 24 Mars, Dimanche

    Heure Température Précipitation Vent Pression Humidité
    00:00 +9°C° 0 mm 1 m/s 743 mmHg 75%
    01:00 +9°C° 0 mm 1 m/s 743 mmHg 76%
    02:00 +8°C° 0 mm 1 m/s 743 mmHg 77%
    03:00 +8°C° 0 mm 1 m/s 743 mmHg 76%
    04:00 +8°C° 0 mm 1 m/s 743 mmHg 74%
    05:00 +8°C° 0 mm 1 m/s 743 mmHg 73%
    06:00 +9°C° 0 mm 1 m/s 743 mmHg 69%
    07:00 +10°C° 0 mm 1 m/s 743 mmHg 66%
    08:00 +11°C° 0 mm 1 m/s 744 mmHg 63%
    09:00 +12°C° 0 mm 1 m/s 744 mmHg 57%
    10:00 +14°C° 0 mm 2 m/s 743 mmHg 51%
    11:00 +15°C° 0 mm 2 m/s 743 mmHg 45%
    12:00 +16°C° 0 mm 2 m/s 743 mmHg 43%
    13:00 +17°C° 0 mm 2 m/s 743 mmHg 40%
    14:00 +18°C° 0 mm 2 m/s 742 mmHg 38%
    15:00 +18°C° 0 mm 2 m/s 742 mmHg 38%
    16:00 +18°C° 0 mm 2 m/s 741 mmHg 39%
    17:00 +17°C° 0 mm 2 m/s 741 mmHg 39%
    18:00 +16°C° 0 mm 1 m/s 741 mmHg 44%
    19:00 +14°C° 0 mm 1 m/s 741 mmHg 49%
    20:00 +12°C° 0 mm 1 m/s 741 mmHg 53%
    21:00 +12°C° 0 mm 1 m/s 742 mmHg 54%
    22:00 +11°C° 0 mm 1 m/s 742 mmHg 55%
    23:00 +10°C° 0 mm 1 m/s 742 mmHg 55%

    25 Mars, Lundi

    Heure Température Précipitation Vent Pression Humidité
    00:00 +10°C° 0 mm 1 m/s 742 mmHg 56%
    01:00 +10°C° 0 mm 1 m/s 741 mmHg 56%
    02:00 +9°C° 0 mm 1 m/s 741 mmHg 56%
    03:00 +9°C° 0 mm 1 m/s 741 mmHg 56%
    04:00 +9°C° 0 mm 1 m/s 741 mmHg 56%
    05:00 +8°C° 0 mm 1 m/s 741 mmHg 55%
    06:00 +10°C° 0 mm 1 m/s 741 mmHg 52%
    07:00 +11°C° 0 mm 1 m/s 741 mmHg 49%
    08:00 +12°C° 0 mm 1 m/s 741 mmHg 46%
    09:00 +14°C° 0 mm 1 m/s 741 mmHg 43%
    10:00 +16°C° 0 mm 2 m/s 741 mmHg 39%
    11:00 +18°C° 0 mm 2 m/s 740 mmHg 35%
    12:00 +19°C° 0 mm 2 m/s 740 mmHg 34%
    13:00 +19°C° 0 mm 3 m/s 739 mmHg 34%
    14:00 +20°C° 0 mm 3 m/s 738 mmHg 33%
    15:00 +20°C° 0 mm 3 m/s 738 mmHg 36%
    16:00 +20°C° 0 mm 3 m/s 738 mmHg 38%
    17:00 +19°C° 0 mm 3 m/s 738 mmHg 40%
    18:00 +17°C° 0 mm 3 m/s 738 mmHg 47%
    19:00 +15°C° 0 mm 2 m/s 738 mmHg 54%
    20:00 +13°C° 0 mm 2 m/s 738 mmHg 61%
    21:00 +13°C° 0 mm 2 m/s 738 mmHg 64%
    22:00 +12°C° 0 mm 2 m/s 738 mmHg 67%
    23:00 +12°C° 0 mm 2 m/s 738 mmHg 70%

    26 Mars, Mardi

    Heure Température Précipitation Vent Pression Humidité
    00:00 +10°C° 0 mm 2 m/s 738 mmHg 71%
    01:00 +10°C° 0 mm 2 m/s 738 mmHg 71%
    02:00 +9°C° 0 mm 2 m/s 738 mmHg 71%
    03:00 +9°C° 0 mm 2 m/s 738 mmHg 72%
    04:00 +8°C° 0 mm 2 m/s 738 mmHg 73%
    05:00 +8°C° 0 mm 2 m/s 738 mmHg 73%
    06:00 +8°C° 0.1 mm 3 m/s 738 mmHg 70%
    07:00 +9°C° 0.1 mm 3 m/s 739 mmHg 66%
    08:00 +9°C° 0.1 mm 3 m/s 739 mmHg 62%
    09:00 +10°C° 0.1 mm 4 m/s 739 mmHg 60%
    10:00 +11°C° 0.1 mm 4 m/s 739 mmHg 57%
    11:00 +11°C° 0.1 mm 4 m/s 739 mmHg 55%
    12:00 +12°C° 0.1 mm 4 m/s 739 mmHg 51%
    13:00 +12°C° 0.1 mm 5 m/s 738 mmHg 47%
    14:00 +12°C° 0.1 mm 5 m/s 738 mmHg 43%
    15:00 +12°C° 0.1 mm 5 m/s 738 mmHg 45%
    16:00 +11°C° 0.1 mm 4 m/s 738 mmHg 46%
    17:00 +10°C° 0.1 mm 4 m/s 737 mmHg 48%
    18:00 +8°C° 0 mm 4 m/s 738 mmHg 50%
    19:00 +7°C° 0 mm 4 m/s 738 mmHg 52%
    20:00 +5°C° 0 mm 3 m/s 738 mmHg 55%
    21:00 +5°C° 0 mm 3 m/s 739 mmHg 56%
    22:00 +4°C° 0 mm 3 m/s 739 mmHg 58%
    23:00 +3°C° 0 mm 3 m/s 739 mmHg 59%

    27 Mars, Mercredi

    Heure Température Précipitation Vent Pression Humidité
    00:00 +3°C° 0 mm 4 m/s 739 mmHg 62%
    01:00 +1°C° 0 mm 4 m/s 739 mmHg 64%
    02:00 +1°C° 0 mm 4 m/s 739 mmHg 67%
    03:00 +1°C° 0 mm 3 m/s 739 mmHg 68%
    04:00 +1°C° 0 mm 3 m/s 739 mmHg 70%
    05:00 +1°C° 0 mm 3 m/s 739 mmHg 71%
    06:00 +2°C° 0 mm 3 m/s 739 mmHg 71%
    07:00 +3°C° 0 mm 4 m/s 739 mmHg 71%
    08:00 +3°C° 0 mm 4 m/s 740 mmHg 70%
    09:00 +4°C° 0.2 mm 4 m/s 740 mmHg 69%
    10:00 +4°C° 0.2 mm 4 m/s 740 mmHg 67%
    11:00 +5°C° 0.2 mm 4 m/s 741 mmHg 66%
    12:00 +5°C° 1 mm 3 m/s 741 mmHg 70%
    13:00 +4°C° 1 mm 3 m/s 741 mmHg 74%
    14:00 +4°C° 1 mm 3 m/s 741 mmHg 77%
    15:00 +4°C° 0.2 mm 3 m/s 741 mmHg 75%
    16:00 +5°C° 0.2 mm 3 m/s 741 mmHg 73%
    17:00 +7°C° 0.2 mm 3 m/s 741 mmHg 70%
    18:00 +5°C° 0.2 mm 3 m/s 742 mmHg 74%
    19:00 +4°C° 0.2 mm 3 m/s 743 mmHg 78%
    20:00 +3°C° 0.2 mm 4 m/s 743 mmHg 82%
    21:00 +3°C° 0.1 mm 3 m/s 744 mmHg 84%
    22:00 +2°C° 0.1 mm 3 m/s 744 mmHg 85%
    23:00 +2°C° 0.1 mm 3 m/s 744 mmHg 87%
    Voir plus